Hourly Data Report for May 28, 2012

All times are specified in Local Standard Time (LST). Add 1 hour to adjust for Daylight Saving Time where and when it is observed.

CHURCHILL A
MANITOBA

58°44'21.000" N
94°03'59.000" W
29.30 m
5060605
71618
YYQ

Related Data

No related data is available for this station

Download Data

Hourly Data (May 2012)
Hourly Data Report for May 28, 2012
Temp Definition
°C
Dew Point Temp Definition
°C
Rel Hum Definition
%
Wind Dir Definition
10's deg

Wind Spd Definition
km/h
Visibility Definition
km
Stn Press Definition
kPa
Hmdx Definition


Wind Chill Definition


Weather Definition


TIME
00:00 Legend Double Dagger -2.4 -2.8 97 5 14 10.0 102.10   -7 Mainly Clear
01:00 Legend Double Dagger -2.3 -2.6 98 6 12 10.0 102.13   -7 LegendNANA
02:00 Legend Double Dagger -3.1 -3.5 97 4 14 10.0 102.09   -8 LegendNANA
03:00 Legend Double Dagger -3.4 -3.8 97 5 15 10.0 102.06   -9 Mainly Clear
04:00 Legend Double Dagger -3.5 -3.9 97 5 11 10.0 102.19   -8 LegendNANA
05:00 Legend Double Dagger -3.3 -3.7 97 5 15 10.0 102.17   -8 LegendNANA
06:00 Legend Double Dagger -3.2 -3.6 97 8 10 10.0 102.21   -7 Cloudy
07:00 Legend Double Dagger -2.5 -3.1 96 4 15 10.0 102.18   -7 LegendNANA
08:00 Legend Double Dagger -2.6 -2.9 98 4 19 1.6 102.17   -8 Fog
09:00 Legend Double Dagger -2.0 -2.8 94 8 13 4.8 102.17   -6 Snow,Fog
10:00 Legend Double Dagger -1.0 -2.3 91 4 15 10.0 102.13   -6 LegendNANA
11:00 Legend Double Dagger -1.0 -2.6 89 3 17 10.0 102.14   -6 LegendNANA
12:00 Legend Double Dagger -0.5 -2.4 87 4 20 10.0 102.11   -6 Cloudy
13:00 Legend Double Dagger -0.2 -2.3 86 4 15 10.0 102.09   -5 LegendNANA
14:00 Legend Double Dagger 0.1 -2.1 85 5 16 10.0 102.04     LegendNANA
15:00 Legend Double Dagger 0.1 -2.3 84 5 18 10.0 102.00     Cloudy
16:00 Legend Double Dagger -0.5 -1.6 92 4 17 4.8 102.04   -5 Snow
17:00 Legend Double Dagger -0.6 -1.7 92 5 11 9.7 102.03   -4 Snow
18:00 Legend Double Dagger -1.0 -2.9 87 7 12 8.1 102.05   -5 Snow,Fog
19:00 Legend Double Dagger -1.6 -3.5 87 6 13 10.0 102.05   -6 LegendNANA
20:00 Legend Double Dagger -2.0 -3.7 88 4 14 10.0 102.02   -7 LegendNANA
21:00 Legend Double Dagger -2.4 -4.0 89 4 18 10.0 101.99   -8 Cloudy
22:00 Legend Double Dagger -2.6 -4.3 88 5 13 10.0 101.99   -7 LegendNANA
23:00 Legend Double Dagger -2.6 -4.2 89 6 8 10.0 101.99   -6 LegendNANA

Notes on Data Quality.

Legend

  • E = Estimated
  • M = Missing
  • NA = Not Available
  • ‡ = Partner data that is not subject to review by the National Climate Archives
Date modified: